Flag for U.S.A. Weather past 2 weeks in Paterson, New Jersey, U.S.A.

Now
73 °F

Clear.


Feels Like: 77 °F
Forecast: 65 / 87 °F
Wind: 6 mph from Southwest

Location: Essex County Airport

Current Time: May 26, 2015 at 12:37:34 AM

Latest Report: May 25, 2015 at 11:53 PM


Visibility: 10 mi

Pressure: 30.20 "Hg

Humidity: 55%

Dew point: 56 °F

Location of PatersonLocation

Historic Weather in Paterson — Graph

°F

Paterson temperature yesterday

Maximum temperature yesterday: 86 °F (at 2:53 PM)
Minimum temperature yesterday: 62 °F (at 3:53 AM)
Average temperature yesterday: 74 °F

Past Weeks' High & Low Weather Summary

 TemperatureHumidityPressure
High86 °F (May 25, 2:53 PM)97% (May 12, 5:53 AM)30.44 "Hg (May 12, 5:53 AM)
Low42 °F (May 14, 5:53 AM)17% (May 14, 3:53 PM)29.77 "Hg (May 12, 6:53 PM)
Average65 °F56%30.12 "Hg
* Reported May 10 10:53 PM — May 25 10:53 PM, Paterson, Weather by CustomWeather, © 2015

Note: Actual official high and low records may vary slightly from our data, if they occured in-between our weather recording intervals... More about our weather records

Advertising

Paterson weather history for previous 24 hours

 ConditionsComfort  
Time TempWeatherWind HumidityBarometerVisibility
10:53 PM
Mon, May 25
75 °FClear.7 mph52%30.20 "Hg10 mi
9:53 PM76 °FClear.6 mph48%30.19 "Hg10 mi
8:53 PM78 °FSunny.7 mph45%30.17 "Hg10 mi
7:53 PM81 °FSunny.6 mph39%30.16 "Hg10 mi
6:53 PM84 °FSunny.12 mph33%30.16 "Hg10 mi
5:53 PM85 °FSunny.7 mph35%30.15 "Hg10 mi
4:53 PM86 °FSunny.8 mph33%30.15 "Hg10 mi
3:53 PM86 °FSunny.9 mph32%30.16 "Hg10 mi
2:53 PM86 °FSunny.15 mph32%30.18 "Hg10 mi
1:53 PM85 °FSunny.8 mph35%30.20 "Hg10 mi
12:53 PM83 °FSunny.9 mph37%30.22 "Hg10 mi
11:53 AM80 °FSunny.9 mph44%30.24 "Hg10 mi
10:53 AM78 °FSunny.9 mph48%30.25 "Hg10 mi
9:53 AM71 °FSunny.6 mph61%30.28 "Hg10 mi
8:53 AM65 °FSunny.3 mph70%30.29 "Hg10 mi
7:53 AM64 °FPartly sunny.No wind70%30.28 "Hg10 mi
6:53 AM63 °FSunny.No wind70%30.28 "Hg10 mi
5:53 AM62 °FClear.No wind67%30.27 "Hg10 mi
4:53 AM62 °FClear.No wind67%30.27 "Hg10 mi
3:53 AM62 °FClear.No wind65%30.27 "Hg10 mi
2:53 AM63 °FClear.No wind63%30.27 "Hg10 mi
1:53 AM65 °FClear.No wind59%30.27 "Hg10 mi
12:53 AM67 °FClear.3 mph53%30.27 "Hg10 mi
Weather by CustomWeather, © 2015

See weather overviewHow to use our weather pages